Weather in Kazanka

Russia / Orenburg Oblast     52°37′31″N   55°04′08″E
temp.,
°C
wind,
m/s
gust,
m/s
humid.,
%
clouds,
%
prec.,
mm/h
press.,
hPa
HPBL,
m
3 march, wed
wed323:00−5sw81593100 1.8 1008709
02:00−4sw81495100 0.9 1005672
05:00−4sw61296100 1.8 1004561
08:00−3sw4997100 0.9 1003412
11:00−2sw5796100 2.0 1003452
14:00−1wsw4696100 0.4 1002521
17:00−1w3592100 0.6 1003309
20:00−5w3495100 0.1 100357
4 march, thu
thu423:00−8w489497 0.2 1005173
02:00−11w489770 0.0 1005138
05:00−12w599784 0.1 1007165
08:00−14w479894 0.0 1008105
11:00−11wsw599596 0.1 1009321
14:00−7sw71291100 0.1 1008505
17:00−6sw81491100 0.3 1007754
20:00−6sw81590100 0.1 1006750
5 march, fri
fri523:00−3sw101791100 0.4 1004774
02:000wsw101795100 0.4 1004942
05:00−1wsw91694100 0.8 1005862
08:00−2sw91591100 0.3 1005697
11:00−2sw101692100 0.4 1005799
14:00−1sw111695100 1.3 10041061
17:000sw101798100 2.5 1003912
20:00+1sw111798100 1.0 1003911
6 march, sat
sat623:00−1w91493100 2.2 1007842
02:00−9nw469489 0.0 1011113
05:00−12wnw239595 0.0 101422
08:00−14nw228597 0.0 101520
11:00−11nne117899 0.0 101490
14:00−8e4584100 0.1 1011266
17:00−8ne6895100 2.3 1008292
20:00−8ne61094100 1.7 1006309
7 march, sun
sun723:00−9nne61095100 2.8 1005322
02:00−12nw4893100 0.1 1007175
05:00−14nw3490100 0.1 101075
08:00−18wnw238882 0.0 101221
11:00−15w359449 0.0 1013217
14:00−13w469389 0.0 1015359
17:00−14w369494 0.1 1015310
20:00−18sw339946 0.0 101721